Regional Weather Roundup
Issued by NWS Cleveland, OH

Home | Current Version | Previous Version | Graphics & Text | Print | Product List | Glossary On
Versions: 1 2 3 4 5 6 7 8 9 10 11 12 13 14 15 16 17 18 19 20 21 22 23 24 25 26 27 28 29 30 31 32 33 34 35 36 37 38 39 40 41 42 43 44 45 46 47 48 49 50
000
ASUS41 KCLE 251310
RWRCLE
OHIO REGIONAL WEATHER ROUNDUP
NATIONAL WEATHER SERVICE CLEVELAND, OH
800 AM EST THU DEC 25 2014

NOTE: "FAIR" INDICATES FEW OR NO CLOUDS BELOW 12,000 FEET WITH NO
SIGNIFICANT WEATHER AND/OR OBSTRUCTIONS TO VISIBILITY.

OHZ001>008-015>018-024>027-034-035-043-044-251400-
   NORTHWEST OHIO

CITY           SKY/WX    TMP DP  RH WIND       PRES   REMARKS
DEFIANCE       CLOUDY    38  31  76 W7        29.88R
FINDLAY        CLOUDY    38  33  82 W17       29.88R
TOLEDO EXPRESS CLOUDY    37  32  82 W16       29.85R
TOLEDO EXEC    CLOUDY    38  32  79 W17G25    29.86R
LIMA           LGT RAIN  37  33  85 W14       29.90R
$$

OHZ009>014-019>023-028>033-038-089-251400-
   NORTHEAST OHIO

CITY           SKY/WX    TMP DP  RH WIND       PRES   REMARKS
CLE-HOPKINS    CLOUDY    38  32  79 W16G25    29.85R
CLE-LAKEFRONT  CLOUDY    40  32  73 W22       29.82R
CUY CO. ARPT   CLOUDY    41  34  75 W16G28    29.81R
LORAIN-ELYRIA  CLOUDY    37  33  85 W18G25    29.85R
ASHTABULA      CLOUDY    38  33  82 W16G24    29.79R
AKRON-CANTON   CLOUDY    38  31  76 W18G26    29.84R
WOOSTER        CLOUDY    36  32  85 W20G26    29.86R
MANSFIELD      CLOUDY    36  33  89 W15G24    29.86R
YOUNGSTOWN     CLOUDY    37  33  85 SW16G22   29.80R
$$

OHZ042-051>053-060>062-070>072-077>081-251400-
  SOUTHWEST OHIO

CITY           SKY/WX    TMP DP  RH WIND       PRES   REMARKS
CINC-COVINGTON CLOUDY    37  30  75 W8        30.00R
CINC-LUNKEN    CLOUDY    37  34  89 SW8       30.03R
HAMILTON       CLOUDY    38  31  76 W10G18    30.01R
DAYTON         CLOUDY    37  31  78 W22       29.96R
WRIGHT-PAT AFB LGT RAIN  36  33  90 W13G22    29.96R
DAYTON GENERAL MIX PCPN  37  31  78 W10G25    29.97R
WILMINGTON     LGT RAIN  35  31  85 W15       29.97R WCI  25
$$

OHZ036-037-039>041-045>050-054>059-063>069-073>076-082>088-251400-
  CENTRAL AND SOUTHEAST OHIO

CITY           SKY/WX    TMP DP  RH WIND       PRES   REMARKS
COLUMBUS       CLOUDY    37  32  82 W13G22    29.94R
OSU AIRPORT    CLOUDY    37  31  78 W12G20    29.93R
BOLTON FIELD   CLOUDY    37  32  81 SW12      29.95R
RICKENBACK AFB CLOUDY    37  32  81 W10       29.96R
NEWARK         CLOUDY    39  33  79 W14G22    29.93R
MARION         CLOUDY    37  31  78 W13G22    29.90R
LANCASTER      CLOUDY    39  32  76 W14G30    29.96R
ZANESVILLE     CLOUDY    37  32  82 W14       29.92R
NEW PHILLY     LGT RAIN  38  33  82 W9        29.89R
$$



USA.gov is the U.S. government's official web portal to all federal, state and local government web resources and services.